Wind_Speed
50 56 62 67 71 76 78 81 84 85 86 90 90 88 87 87 85 81 74 69 64 58 51 51 52 56 57 59 63 68 71 61 60 69 75 88 82 78 91 100 97 93 91 80 82
54 60 66 70 74 78 82 85 86 88 89 91 94 93 91 89 84 82 73 68 62 56 52 50 52 54 53 59 63 68 63 58 68 79 87 89 80 76 91 92 102 100 94 85 89
56 61 66 69 75 79 83 88 90 93 94 96 96 96 96 92 81 81 73 64 58 51 49 48 51 51 53 56 57 65 60 68 73 80 88 86 82 85 88 89 93 104 99 92 95
60 65 70 74 80 82 86 91 93 96 99 101 101 100 97 89 82 83 73 60 56 48 45 47 50 51 54 54 60 64 68 72 78 86 87 86 86 86 86 85 94 109 104 101 97
63 68 74 76 79 84 86 91 97 99 102 103 103 101 99 90 92 81 69 60 54 47 40 46 50 52 55 58 61 59 69 76 82 85 89 92 91 91 81 91 94 104 105 105 100
66 72 77 81 85 87 88 92 97 101 106 106 106 105 100 92 92 81 67 57 52 44 39 43 48 49 54 57 56 65 75 79 84 85 90 92 90 93 87 91 93 100 105 107 107
70 76 81 83 89 88 88 94 100 105 107 109 110 108 98 98 93 77 64 55 49 43 37 36 45 47 52 57 62 71 76 79 81 84 88 93 96 93 93 94 93 98 102 112 110
74 80 85 86 85 88 92 96 102 107 110 113 111 107 102 99 92 74 62 52 47 41 33 33 41 46 51 59 66 72 77 77 79 85 90 92 91 92 99 96 93 96 103 109 109
78 85 86 86 87 90 94 98 102 109 112 114 112 110 107 100 89 68 56 47 42 38 31 30 40 45 49 58 65 69 71 74 86 86 89 88 88 91 92 88 91 92 100 106 105
81 86 88 88 89 91 92 97 102 111 114 115 116 111 104 101 83 66 52 45 40 32 31 29 36 45 48 54 56 65 74 79 84 86 87 86 88 90 91 95 94 93 96 103 102
84 87 86 87 88 92 94 95 103 108 117 116 114 112 111 110 81 64 50 42 36 30 29 27 33 44 49 55 65 68 78 80 82 85 85 82 88 90 93 93 89 89 91 99 101
87 87 87 86 92 95 100 104 107 113 118 118 114 110 111 105 79 62 48 39 34 29 27 26 32 42 46 55 64 69 76 77 84 86 85 89 90 92 90 94 90 97 95 98 103
88 87 89 89 93 96 100 105 110 115 119 120 116 114 110 97 74 60 48 39 31 28 25 26 30 37 41 52 62 67 73 82 82 85 86 92 94 89 89 95 89 92 88 92 103
88 88 88 90 90 95 104 108 112 117 120 120 116 117 109 97 70 56 46 38 30 25 26 25 28 36 41 50 58 63 71 81 84 87 86 90 89 85 86 92 90 88 96 95 93
87 88 91 91 94 98 104 109 114 120 124 123 120 116 121 89 66 53 46 36 29 24 25 26 28 35 43 51 56 64 73 79 85 85 85 83 87 81 89 94 90 88 97 86 91
87 89 92 97 98 101 106 111 115 120 122 122 120 117 110 80 61 52 45 36 28 25 22 27 28 37 45 48 54 62 69 77 80 84 80 82 79 88 87 88 87 88 92 87 96
90 92 96 97 99 100 107 113 117 118 124 119 121 117 102 75 60 52 45 35 27 23 22 26 31 36 45 46 52 59 66 76 82 84 78 81 85 87 85 92 89 90 91 88 100
94 93 97 97 97 101 106 114 117 119 123 121 118 117 94 71 58 49 43 34 25 22 21 26 32 31 40 47 54 61 69 74 76 72 74 84 82 81 85 91 89 91 92 89 101
95 95 97 98 101 105 109 113 116 118 118 121 119 112 84 66 57 47 41 33 24 20 21 24 29 32 37 44 51 57 63 70 74 76 81 81 77 82 83 89 87 87 84 81 85
95 98 98 102 104 106 110 113 113 117 117 119 116 103 79 65 55 47 38 31 24 18 19 24 28 31 34 40 48 54 63 66 69 76 79 76 73 77 81 84 85 82 76 73 78
97 99 101 104 108 108 110 112 113 115 116 118 111 96 74 62 53 46 37 29 22 19 18 23 26 29 32 38 46 49 52 59 67 76 77 74 76 76 76 80 82 80 74 71 71
96 99 101 108 109 108 109 108 111 111 111 114 108 86 71 60 52 43 38 27 22 20 18 22 26 29 32 35 40 45 52 59 64 69 67 68 70 70 72 78 82 77 71 70 70
94 96 102 104 106 109 108 106 108 108 110 107 103 81 65 58 49 42 36 28 21 20 19 21 25 29 31 34 38 43 45 52 57 59 61 67 71 71 74 77 82 76 71 68 69
96 98 98 102 107 109 105 106 105 107 107 104 92 74 60 56 48 42 33 27 21 19 20 20 25 29 31 33 37 43 45 50 52 57 65 70 70 71 75 78 79 76 70 67 67
96 99 106 104 103 106 104 103 104 104 103 98 82 69 60 52 46 40 34 25 22 20 20 20 24 28 31 32 34 40 48 52 54 60 67 67 70 73 76 77 75 74 70 69 68
98 103 106 105 103 103 100 103 104 104 100 90 76 64 57 51 46 38 31 25 24 23 20 20 20 25 29 32 38 41 47 53 57 60 59 61 65 68 73 72 72 70 69 70 70
101 103 105 103 102 100 99 102 100 100 96 84 72 61 54 48 43 36 29 26 26 25 22 20 19 22 28 34 41 48 50 54 56 58 53 58 62 68 71 70 71 70 68 68 69
Wind_Direction
333 332 334 334 331 333 331 329 326 324 322 321 318 320 322 323 323 321 318 308 299 290 280 270 260 250 240 235 227 226 228 221 217 221 218 221 219 217 216 214 212 219 222 220 226
332 332 335 334 333 333 331 327 324 324 322 321 322 323 323 325 325 322 317 309 298 288 274 264 257 251 238 233 228 227 224 219 216 215 218 220 219 218 220 215 212 218 220 216 224
331 334 333 331 330 332 332 328 327 324 323 323 323 324 327 326 329 325 316 309 298 285 276 264 255 247 237 231 229 227 218 215 217 216 219 219 218 219 218 218 214 216 218 216 222
333 332 333 333 332 333 330 326 327 326 325 325 325 326 328 329 329 328 317 309 299 288 274 263 253 243 235 225 220 224 217 212 215 216 217 220 217 220 219 217 213 214 216 218 219
332 332 333 332 332 331 330 326 326 325 324 326 325 328 329 332 331 329 319 308 299 286 271 262 250 240 234 226 221 216 214 211 213 215 215 216 216 221 217 219 215 214 213 218 219
330 331 333 333 332 332 330 327 325 324 325 325 327 330 333 333 332 329 320 309 299 287 274 261 251 239 233 227 219 213 214 210 212 212 214 216 215 218 217 218 218 213 212 217 220
331 332 334 334 332 332 328 326 325 324 326 326 329 331 335 332 332 329 320 310 299 289 277 257 247 237 229 224 216 212 215 212 211 213 214 214 215 214 216 218 217 214 212 217 218
331 333 335 334 332 332 328 327 324 324 326 328 329 334 335 333 332 327 319 309 302 291 278 255 246 236 225 220 214 215 212 213 210 213 214 215 215 216 217 217 216 214 212 216 218
333 334 335 334 334 332 330 327 325 324 327 329 332 335 335 333 332 328 320 311 301 290 276 253 245 236 225 221 216 215 210 210 212 212 214 215 215 218 219 216 218 216 213 215 216
334 335 336 335 335 333 331 328 326 326 327 328 332 334 337 337 332 330 322 313 299 286 275 258 241 235 226 223 216 213 211 209 209 211 214 211 213 214 217 217 216 215 215 216 215
334 336 336 336 335 334 331 328 327 325 326 329 335 337 339 337 332 330 323 314 299 287 275 260 239 231 224 218 213 211 210 206 209 211 213 211 214 214 215 219 217 216 214 216 215
335 336 335 335 333 334 332 330 328 327 328 333 336 340 339 337 331 329 324 317 305 293 277 259 239 234 224 220 213 208 208 209 208 209 209 213 213 213 214 218 214 216 211 213 215
335 335 334 333 333 332 331 329 329 328 328 332 336 342 339 336 331 328 325 318 309 296 277 258 242 239 227 220 213 209 207 208 207 210 210 212 215 211 212 217 215 218 210 218 215
334 334 333 333 333 333 331 330 330 329 330 333 338 340 340 336 331 328 324 319 311 295 279 261 242 234 224 216 212 207 208 209 209 209 210 214 216 211 212 217 215 214 215 214 218
333 331 332 332 332 332 330 329 329 329 330 333 335 340 339 334 330 329 324 319 311 296 279 262 239 230 223 215 211 207 209 207 210 210 208 214 215 212 212 216 216 212 220 208 216
331 330 331 331 330 329 328 329 329 330 330 332 337 338 338 335 331 331 326 320 309 296 279 261 242 225 223 217 211 211 209 209 211 212 209 212 211 214 213 218 218 213 218 210 215
331 331 331 331 332 332 330 330 329 330 330 333 337 338 337 335 331 333 326 319 310 296 280 257 246 225 223 217 214 210 210 209 211 213 209 211 211 213 211 218 218 218 217 210 214
331 330 331 332 331 332 331 330 330 330 331 334 337 336 335 333 332 333 327 318 311 296 278 255 245 232 224 219 213 209 209 211 211 212 209 213 214 215 211 218 219 219 217 215 215
330 330 331 331 330 331 330 331 329 329 330 333 336 337 334 333 333 334 328 318 311 295 276 258 242 234 222 218 217 215 213 211 210 208 211 215 211 214 215 218 221 223 222 216 219
328 329 330 330 330 330 331 329 330 330 330 334 335 336 333 334 334 333 328 317 310 293 272 257 243 237 222 218 218 215 215 214 211 212 212 212 211 212 215 218 223 225 226 219 216
326 328 329 329 329 330 330 329 330 329 330 331 333 333 333 335 335 331 326 316 307 290 267 255 246 235 226 219 222 218 217 217 210 213 213 209 211 212 214 217 222 224 223 219 215
323 325 328 329 328 330 330 329 330 329 330 331 332 335 334 335 334 330 323 316 306 285 264 253 246 237 227 221 219 221 216 212 215 214 214 212 213 212 215 215 221 222 223 220 216
322 324 327 328 329 329 330 329 329 329 330 332 331 333 336 335 333 329 321 315 305 284 269 248 245 241 231 220 218 218 219 221 214 211 211 212 211 209 213 215 221 222 220 217 215
323 324 326 327 330 330 329 329 329 329 329 331 331 333 337 333 331 327 320 313 302 284 272 249 240 236 230 226 218 215 210 215 217 208 208 211 209 208 214 215 218 222 222 219 216
324 325 327 328 329 329 329 329 329 330 330 332 332 335 337 333 329 325 318 313 302 287 274 256 240 238 231 222 218 219 211 212 211 210 212 209 210 210 211 215 215 218 220 219 219
324 325 326 328 329 330 329 331 329 329 328 333 332 336 336 332 328 322 317 313 303 294 282 267 248 241 233 224 212 213 216 211 215 212 211 209 210 211 213 214 215 217 217 218 218
325 326 325 328 328 330 329 331 330 329 329 332 333 336 335 331 327 321 316 312 304 296 289 276 259 241 228 221 213 209 210 214 213 216 207 210 208 209 213 212 214 213 214 217 219
Height
10741 10734 10727 10720 10710 10700 10690 10680 10667 10655 10642 10631 10617 10607 10597 10587 10576 10561 10553 10542 10533 10532 10528 10527 10528 10531 10537 10546 10551 10556 10567 10600 10620 10623 10633 10614 10633 10657 10660 10670 10691 10699 10711 10739 10740
10735 10728 10720 10710 10701 10690 10678 10667 10655 10641 10629 10614 10601 10589 10576 10566 10555 10541 10530 10520 10511 10509 10507 10505 10506 10511 10521 10524 10532 10538 10563 10592 10596 10596 10594 10604 10629 10645 10645 10663 10678 10683 10701 10723 10720
10731 10723 10714 10703 10692 10681 10668 10655 10642 10625 10611 10597 10582 10569 10560 10547 10536 10522 10507 10497 10489 10487 10484 10485 10487 10493 10501 10505 10519 10526 10552 10560 10571 10580 10581 10596 10615 10623 10632 10649 10672 10671 10687 10703 10702
10724 10715 10703 10691 10681 10669 10657 10642 10629 10612 10597 10581 10566 10553 10540 10525 10511 10504 10485 10476 10468 10466 10464 10463 10468 10474 10480 10491 10494 10505 10524 10537 10544 10554 10568 10586 10597 10609 10620 10643 10643 10651 10671 10684 10692
10717 10706 10695 10684 10672 10659 10647 10631 10616 10599 10581 10564 10549 10536 10521 10504 10492 10478 10466 10452 10448 10444 10445 10441 10447 10455 10462 10468 10478 10499 10505 10514 10520 10535 10549 10562 10580 10592 10614 10614 10627 10639 10662 10671 10683
10708 10698 10688 10674 10660 10645 10634 10618 10601 10584 10565 10547 10531 10518 10501 10485 10474 10460 10447 10435 10426 10426 10426 10424 10428 10438 10443 10454 10472 10476 10479 10494 10500 10518 10529 10545 10563 10573 10595 10598 10615 10630 10652 10654 10667
10700 10691 10678 10664 10648 10633 10619 10605 10587 10568 10550 10530 10515 10499 10484 10467 10454 10443 10428 10415 10408 10407 10407 10411 10410 10418 10427 10437 10446 10454 10466 10478 10492 10506 10519 10530 10541 10556 10573 10580 10600 10615 10636 10636 10652
10693 10682 10668 10655 10639 10622 10604 10590 10572 10552 10535 10515 10499 10484 10467 10447 10434 10423 10410 10398 10391 10390 10391 10395 10394 10399 10408 10417 10426 10441 10449 10466 10485 10489 10499 10512 10535 10546 10549 10564 10584 10601 10618 10623 10644
10684 10672 10659 10645 10630 10612 10594 10574 10555 10534 10515 10494 10477 10464 10452 10438 10413 10405 10393 10384 10377 10373 10376 10379 10378 10384 10393 10400 10412 10427 10445 10459 10456 10472 10484 10504 10523 10532 10543 10561 10572 10590 10602 10612 10633
10675 10662 10648 10634 10618 10603 10585 10565 10545 10518 10501 10483 10468 10454 10440 10420 10399 10385 10377 10367 10361 10360 10360 10363 10366 10369 10378 10388 10410 10420 10428 10434 10445 10459 10471 10494 10506 10517 10530 10542 10554 10573 10591 10601 10622
10665 10652 10637 10622 10607 10593 10578 10563 10542 10517 10491 10473 10452 10432 10410 10396 10382 10371 10363 10354 10349 10346 10346 10349 10352 10354 10361 10373 10381 10397 10406 10420 10431 10442 10461 10485 10489 10507 10516 10529 10547 10563 10580 10594 10607
10654 10640 10627 10612 10596 10579 10559 10540 10521 10500 10476 10459 10440 10424 10405 10385 10369 10358 10350 10342 10336 10334 10334 10337 10339 10341 10350 10359 10370 10383 10395 10413 10415 10427 10448 10459 10473 10489 10505 10514 10534 10541 10562 10581 10593
10644 10631 10616 10603 10586 10568 10548 10527 10506 10486 10465 10443 10424 10402 10389 10372 10357 10345 10337 10331 10327 10323 10323 10326 10330 10334 10341 10349 10359 10375 10387 10393 10407 10417 10435 10440 10454 10474 10490 10498 10519 10532 10558 10566 10579
10634 10621 10608 10591 10576 10557 10535 10513 10493 10468 10450 10433 10412 10396 10379 10362 10346 10334 10326 10321 10317 10314 10314 10316 10321 10324 10329 10338 10350 10365 10373 10383 10391 10403 10423 10432 10449 10467 10481 10489 10506 10527 10537 10556 10569
10625 10611 10598 10581 10563 10543 10524 10503 10480 10459 10433 10415 10399 10383 10362 10350 10334 10325 10316 10312 10308 10305 10305 10307 10311 10315 10318 10325 10340 10350 10357 10371 10378 10394 10408 10429 10438 10464 10464 10473 10498 10517 10520 10550 10549
10615 10602 10587 10570 10553 10538 10515 10491 10470 10445 10423 10405 10386 10370 10352 10336 10323 10314 10306 10303 10299 10297 10297 10297 10302 10305 10306 10319 10330 10338 10350 10362 10373 10382 10403 10415 10440 10439 10460 10477 10488 10501 10510 10533 10537
10605 10591 10576 10560 10542 10522 10501 10481 10457 10437 10409 10395 10377 10356 10341 10326 10314 10304 10298 10293 10291 10289 10288 10289 10292 10297 10300 10310 10320 10330 10341 10349 10357 10369 10398 10404 10416 10432 10455 10453 10471 10483 10498 10523 10526
10595 10581 10565 10548 10530 10512 10491 10468 10445 10424 10399 10379 10369 10349 10333 10316 10306 10295 10290 10285 10284 10281 10280 10281 10283 10291 10296 10301 10307 10318 10325 10339 10356 10377 10391 10389 10411 10432 10442 10443 10459 10471 10486 10504 10511
10586 10571 10554 10536 10516 10498 10477 10456 10436 10413 10393 10373 10355 10339 10322 10309 10296 10287 10282 10277 10276 10275 10273 10274 10277 10282 10288 10295 10302 10312 10322 10331 10345 10359 10367 10383 10406 10417 10431 10438 10449 10460 10477 10500 10514
10575 10559 10544 10525 10506 10486 10467 10445 10422 10401 10380 10362 10346 10329 10312 10299 10288 10279 10276 10271 10269 10269 10267 10268 10270 10275 10283 10289 10294 10301 10309 10324 10340 10348 10358 10378 10397 10409 10421 10434 10440 10452 10472 10489 10504
10559 10544 10528 10514 10493 10477 10455 10433 10412 10391 10372 10351 10333 10319 10302 10290 10280 10272 10268 10265 10263 10261 10261 10260 10263 10269 10276 10281 10286 10296 10309 10323 10332 10336 10349 10368 10380 10395 10411 10421 10430 10443 10458 10474 10492
10548 10532 10516 10499 10483 10465 10445 10424 10403 10379 10362 10343 10322 10311 10292 10282 10273 10266 10260 10258 10256 10255 10255 10255 10257 10261 10267 10274 10281 10289 10298 10307 10320 10332 10348 10364 10376 10393 10403 10411 10415 10432 10448 10465 10478
10540 10525 10509 10491 10471 10452 10432 10411 10392 10370 10350 10335 10315 10300 10286 10275 10268 10261 10254 10252 10250 10248 10249 10251 10251 10255 10260 10267 10274 10282 10294 10303 10312 10329 10343 10351 10363 10379 10389 10401 10406 10420 10436 10453 10467
10526 10512 10499 10483 10461 10440 10420 10400 10378 10360 10341 10327 10308 10290 10280 10268 10261 10255 10251 10246 10244 10242 10242 10245 10244 10247 10253 10259 10267 10275 10286 10292 10305 10320 10326 10336 10353 10368 10376 10386 10401 10414 10430 10443 10455
10514 10499 10486 10469 10452 10429 10410 10389 10368 10349 10333 10316 10301 10282 10271 10263 10256 10250 10243 10240 10237 10235 10235 10237 10238 10241 10246 10252 10261 10269 10275 10285 10294 10302 10312 10329 10342 10353 10363 10375 10391 10404 10421 10434 10445
10500 10488 10472 10456 10438 10419 10398 10378 10358 10341 10324 10307 10292 10276 10264 10256 10249 10243 10236 10233 10229 10228 10229 10230 10233 10235 10240 10246 10251 10259 10268 10274 10281 10291 10307 10324 10334 10347 10354 10370 10383 10399 10412 10423 10435
10486 10475 10461 10447 10427 10408 10388 10368 10348 10327 10314 10301 10283 10270 10258 10250 10244 10237 10231 10226 10223 10220 10221 10223 10226 10228 10232 10236 10242 10249 10256 10265 10273 10282 10305 10315 10326 10337 10346 10361 10373 10386 10400 10414 10427